Time,TemperatureF,DewpointF,PressureIn,WindDirection,WindDirectionDegrees,WindSpeedMPH,WindSpeedGustMPH,Humidity,HourlyPrecipIn,Conditions,Clouds,dailyrainin,SoftwareType,DateUTC
2013-05-17 00:01:00,62.0,52.1,29.89,NW,313,0.0,0.0,70,0.00,,,0.00,WeatherCatV1.15B25,2013-05-17 07:01:00,
2013-05-17 00:06:00,61.9,52.0,29.89,WNW,302,0.0,0.0,70,0.00,,,0.00,WeatherCatV1.15B25,2013-05-17 07:06:00,
2013-05-17 00:11:00,61.8,52.3,29.89,WNW,300,0.0,0.0,71,0.00,,,0.00,WeatherCatV1.15B25,2013-05-17 07:11:00,
2013-05-17 00:16:00,61.6,52.1,29.90,WNW,299,0.0,1.0,71,0.00,,,0.00,WeatherCatV1.15B25,2013-05-17 07:16:00,
2013-05-17 00:21:00,61.5,52.0,29.90,WNW,299,0.0,1.0,71,0.00,,,0.00,WeatherCatV1.15B25,2013-05-17 07:21:00,
2013-05-17 00:26:00,61.3,51.8,29.90,WNW,298,1.0,1.0,71,0.00,,,0.00,WeatherCatV1.15B25,2013-05-17 07:26:00,
2013-05-17 00:31:00,61.0,51.9,29.90,WNW,298,0.0,2.0,72,0.00,,,0.00,WeatherCatV1.15B25,2013-05-17 07:31:00,
2013-05-17 00:36:00,60.8,51.7,29.90,WNW,299,0.0,0.0,72,0.00,,,0.00,WeatherCatV1.15B25,2013-05-17 07:36:00,
2013-05-17 00:41:00,60.6,51.5,29.90,WNW,298,0.0,1.0,72,0.00,,,0.00,WeatherCatV1.15B25,2013-05-17 07:41:00,
2013-05-17 00:46:00,60.4,51.3,29.90,WNW,298,1.0,2.0,72,0.00,,,0.00,WeatherCatV1.15B25,2013-05-17 07:46:00,
2013-05-17 00:51:00,60.3,51.2,29.90,WNW,291,0.0,3.0,72,0.00,,,0.00,WeatherCatV1.15B25,2013-05-17 07:51:00,
2013-05-17 00:56:00,60.1,51.4,29.90,West,276,0.0,1.0,73,0.00,,,0.00,WeatherCatV1.15B25,2013-05-17 07:56:00,
2013-05-17 01:01:00,59.8,50.8,29.90,West,277,0.0,0.0,72,0.00,,,0.00,WeatherCatV1.15B25,2013-05-17 08:01:00,
2013-05-17 01:06:00,59.6,50.6,29.90,West,277,0.0,1.0,72,0.00,,,0.00,WeatherCatV1.15B25,2013-05-17 08:06:00,
2013-05-17 01:11:00,59.3,50.3,29.90,West,277,0.0,0.0,72,0.00,,,0.00,WeatherCatV1.15B25,2013-05-17 08:11:00,
2013-05-17 01:12:00,59.2,50.2,29.90,West,277,0.0,0.0,72,0.00,,,0.00,WeatherCatV1.15B25,2013-05-17 08:12:00,
2013-05-17 01:17:00,59.1,50.1,29.89,West,277,0.0,0.0,72,0.00,,,0.00,WeatherCatV1.15B25,2013-05-17 08:17:00,
2013-05-17 01:22:00,58.8,50.2,29.89,West,277,0.0,0.0,73,0.00,,,0.00,WeatherCatV1.15B25,2013-05-17 08:22:00,
2013-05-17 01:27:00,58.5,49.9,29.89,West,276,0.0,0.0,73,0.00,,,0.00,WeatherCatV1.15B25,2013-05-17 08:27:00,
2013-05-17 01:32:00,58.4,49.4,29.89,West,276,0.0,0.0,72,0.00,,,0.00,WeatherCatV1.15B25,2013-05-17 08:32:00,
2013-05-17 01:37:00,58.2,49.2,29.89,West,277,0.0,0.0,72,0.00,,,0.00,WeatherCatV1.15B25,2013-05-17 08:37:00,
2013-05-17 01:42:00,58.1,49.1,29.89,West,274,0.0,0.0,72,0.00,,,0.00,WeatherCatV1.15B25,2013-05-17 08:42:00,
2013-05-17 01:47:00,58.0,48.6,29.89,West,270,0.0,2.0,71,0.00,,,0.00,WeatherCatV1.15B25,2013-05-17 08:47:00,
2013-05-17 01:52:00,57.9,48.6,29.89,West,270,0.0,1.0,71,0.00,,,0.00,WeatherCatV1.15B25,2013-05-17 08:52:00,
2013-05-17 01:57:00,57.7,48.4,29.89,West,269,0.0,1.0,71,0.00,,,0.00,WeatherCatV1.15B25,2013-05-17 08:57:00,
2013-05-17 02:02:00,57.6,48.3,29.89,West,277,0.0,2.0,71,0.00,,,0.00,WeatherCatV1.15B25,2013-05-17 09:02:00,
2013-05-17 02:07:00,57.4,48.1,29.89,West,277,0.0,0.0,71,0.00,,,0.00,WeatherCatV1.15B25,2013-05-17 09:07:00,
2013-05-17 02:12:00,57.1,47.8,29.89,West,277,0.0,0.0,71,0.00,,,0.00,WeatherCatV1.15B25,2013-05-17 09:12:00,
2013-05-17 02:17:00,57.0,47.7,29.89,West,276,0.0,0.0,71,0.00,,,0.00,WeatherCatV1.15B25,2013-05-17 09:17:00,
2013-05-17 02:22:00,56.7,47.8,29.89,West,276,0.0,0.0,72,0.00,,,0.00,WeatherCatV1.15B25,2013-05-17 09:22:00,
2013-05-17 02:27:00,56.6,47.7,29.89,West,276,0.0,1.0,72,0.00,,,0.00,WeatherCatV1.15B25,2013-05-17 09:27:00,
2013-05-17 02:32:00,56.4,47.1,29.89,West,277,0.0,0.0,71,0.00,,,0.00,WeatherCatV1.15B25,2013-05-17 09:32:00,
2013-05-17 02:37:00,56.3,47.0,29.90,West,275,0.0,1.0,71,0.00,,,0.00,WeatherCatV1.15B25,2013-05-17 09:37:00,
2013-05-17 02:42:00,56.3,46.6,29.89,West,275,0.0,1.0,70,0.00,,,0.00,WeatherCatV1.15B25,2013-05-17 09:42:00,
2013-05-17 02:47:00,56.3,46.3,29.89,West,275,0.0,0.0,69,0.00,,,0.00,WeatherCatV1.15B25,2013-05-17 09:47:00,
2013-05-17 02:52:00,56.2,45.8,29.89,West,279,0.0,0.0,68,0.00,,,0.00,WeatherCatV1.15B25,2013-05-17 09:52:00,
2013-05-17 02:57:00,56.2,45.8,29.89,West,279,0.0,0.0,68,0.00,,,0.00,WeatherCatV1.15B25,2013-05-17 09:57:00,
2013-05-17 03:02:00,56.2,45.8,29.89,West,279,0.0,0.0,68,0.00,,,0.00,WeatherCatV1.15B25,2013-05-17 10:02:00,
2013-05-17 03:07:00,56.2,45.8,29.89,West,277,1.0,1.0,68,0.00,,,0.00,WeatherCatV1.15B25,2013-05-17 10:07:00,
2013-05-17 03:12:00,56.1,45.7,29.89,West,277,0.0,0.0,68,0.00,,,0.00,WeatherCatV1.15B25,2013-05-17 10:12:00,
2013-05-17 03:17:00,56.0,45.6,29.90,West,277,0.0,1.0,68,0.00,,,0.00,WeatherCatV1.15B25,2013-05-17 10:17:00,
2013-05-17 03:22:00,56.1,45.7,29.89,West,268,1.0,1.0,68,0.00,,,0.00,WeatherCatV1.15B25,2013-05-17 10:22:00,
2013-05-17 03:27:00,56.1,45.7,29.89,West,268,0.0,1.0,68,0.00,,,0.00,WeatherCatV1.15B25,2013-05-17 10:27:00,
2013-05-17 03:32:00,56.1,45.7,29.90,WNW,295,0.0,0.0,68,0.00,,,0.00,WeatherCatV1.15B25,2013-05-17 10:32:00,
2013-05-17 03:37:00,56.0,46.0,29.89,WNW,295,0.0,0.0,69,0.00,,,0.00,WeatherCatV1.15B25,2013-05-17 10:37:00,
2013-05-17 03:42:00,55.9,46.3,29.90,WNW,295,0.0,2.0,70,0.00,,,0.00,WeatherCatV1.15B25,2013-05-17 10:42:00,
2013-05-17 03:47:00,55.7,46.1,29.89,WNW,296,3.0,3.0,70,0.00,,,0.00,WeatherCatV1.15B25,2013-05-17 10:47:00,
2013-05-17 03:52:00,55.7,46.4,29.89,NW,305,1.0,3.0,71,0.00,,,0.00,WeatherCatV1.15B25,2013-05-17 10:52:00,
2013-05-17 03:57:00,55.5,46.2,29.90,NW,304,0.0,2.0,71,0.00,,,0.00,WeatherCatV1.15B25,2013-05-17 10:57:00,
2013-05-17 04:02:00,55.5,46.2,29.89,WNW,295,0.0,3.0,71,0.00,,,0.00,WeatherCatV1.15B25,2013-05-17 11:02:00,
2013-05-17 04:07:00,55.4,46.5,29.90,WNW,286,0.0,1.0,72,0.00,,,0.00,WeatherCatV1.15B25,2013-05-17 11:07:00,
2013-05-17 04:12:00,55.3,46.4,29.90,WNW,286,0.0,1.0,72,0.00,,,0.00,WeatherCatV1.15B25,2013-05-17 11:12:00,
2013-05-17 04:17:00,55.1,46.2,29.90,WNW,288,0.0,1.0,72,0.00,,,0.00,WeatherCatV1.15B25,2013-05-17 11:17:00,
2013-05-17 04:22:00,55.0,46.5,29.89,WNW,291,0.0,1.0,73,0.00,,,0.00,WeatherCatV1.15B25,2013-05-17 11:22:00,
2013-05-17 04:27:00,54.9,46.4,29.90,WNW,291,1.0,2.0,73,0.00,,,0.00,WeatherCatV1.15B25,2013-05-17 11:27:00,
2013-05-17 04:32:00,54.8,46.3,29.90,NNW,336,1.0,1.0,73,0.00,,,0.00,WeatherCatV1.15B25,2013-05-17 11:32:00,
2013-05-17 04:37:00,54.6,46.5,29.90,NNW,334,0.0,1.0,74,0.00,,,0.00,WeatherCatV1.15B25,2013-05-17 11:37:00,
2013-05-17 04:42:00,54.5,46.4,29.90,NNW,333,0.0,1.0,74,0.00,,,0.00,WeatherCatV1.15B25,2013-05-17 11:42:00,
2013-05-17 04:47:00,54.3,46.5,29.90,SSW,204,0.0,2.0,75,0.00,,,0.00,WeatherCatV1.15B25,2013-05-17 11:47:00,
2013-05-17 04:52:00,54.2,46.4,29.90,SSW,207,0.0,1.0,75,0.00,,,0.00,WeatherCatV1.15B25,2013-05-17 11:52:00,
2013-05-17 04:57:00,54.1,46.4,29.90,SSW,210,0.0,0.0,75,0.00,,,0.00,WeatherCatV1.15B25,2013-05-17 11:57:00,
2013-05-17 05:02:00,53.9,46.5,29.90,SSW,211,0.0,0.0,76,0.00,,,0.00,WeatherCatV1.15B25,2013-05-17 12:02:00,
2013-05-17 05:07:00,53.8,46.4,29.90,SSW,211,0.0,0.0,76,0.00,,,0.00,WeatherCatV1.15B25,2013-05-17 12:07:00,
2013-05-17 05:12:00,53.6,46.2,29.90,SW,217,0.0,0.0,76,0.00,,,0.00,WeatherCatV1.15B25,2013-05-17 12:12:00,
2013-05-17 05:17:00,53.5,46.5,29.90,SW,217,0.0,0.0,77,0.00,,,0.00,WeatherCatV1.15B25,2013-05-17 12:17:00,
2013-05-17 05:22:00,53.4,46.4,29.90,SW,217,0.0,1.0,77,0.00,,,0.00,WeatherCatV1.15B25,2013-05-17 12:22:00,
2013-05-17 05:27:00,53.3,46.3,29.90,SW,218,0.0,0.0,77,0.00,,,0.00,WeatherCatV1.15B25,2013-05-17 12:27:00,
2013-05-17 05:32:00,53.2,46.2,29.90,SW,218,0.0,0.0,77,0.00,,,0.00,WeatherCatV1.15B25,2013-05-17 12:32:00,
2013-05-17 05:37:00,53.0,46.3,29.90,SW,218,0.0,0.0,78,0.00,,,0.00,WeatherCatV1.15B25,2013-05-17 12:37:00,
2013-05-17 05:42:00,52.9,46.2,29.90,SW,218,0.0,0.0,78,0.00,,,0.00,WeatherCatV1.15B25,2013-05-17 12:42:00,
2013-05-17 05:47:00,52.8,46.5,29.90,SW,218,0.0,0.0,79,0.00,,,0.00,WeatherCatV1.15B25,2013-05-17 12:47:00,
2013-05-17 05:52:00,52.7,46.4,29.91,SW,218,0.0,0.0,79,0.00,,,0.00,WeatherCatV1.15B25,2013-05-17 12:52:00,
2013-05-17 05:57:00,52.5,46.5,29.91,SW,218,0.0,0.0,80,0.00,,,0.00,WeatherCatV1.15B25,2013-05-17 12:57:00,
2013-05-17 06:02:00,52.4,46.4,29.91,SW,218,0.0,0.0,80,0.00,,,0.00,WeatherCatV1.15B25,2013-05-17 13:02:00,
2013-05-17 06:07:00,52.3,46.3,29.91,SW,218,0.0,0.0,80,0.00,,,0.00,WeatherCatV1.15B25,2013-05-17 13:07:00,
2013-05-17 06:12:00,52.2,46.5,29.91,SW,218,0.0,0.0,81,0.00,,,0.00,WeatherCatV1.15B25,2013-05-17 13:12:00,
2013-05-17 06:17:00,52.1,46.4,29.91,SW,218,0.0,0.0,81,0.00,,,0.00,WeatherCatV1.15B25,2013-05-17 13:17:00,
2013-05-17 06:22:00,52.0,46.4,29.92,SW,218,0.0,0.0,81,0.00,,,0.00,WeatherCatV1.15B25,2013-05-17 13:22:00,
2013-05-17 06:27:00,52.0,46.4,29.92,SW,218,0.0,0.0,81,0.00,,,0.00,WeatherCatV1.15B25,2013-05-17 13:27:00,
2013-05-17 06:32:00,52.1,46.8,29.92,SW,218,0.0,1.0,82,0.00,,,0.00,WeatherCatV1.15B25,2013-05-17 13:32:00,
2013-05-17 06:37:00,52.1,46.8,29.92,SW,218,0.0,0.0,82,0.00,,,0.00,WeatherCatV1.15B25,2013-05-17 13:37:00,
2013-05-17 06:43:00,52.2,46.9,29.92,SW,218,0.0,0.0,82,0.00,,,0.00,WeatherCatV1.15B25,2013-05-17 13:43:00,
2013-05-17 06:48:00,52.4,47.1,29.93,SW,218,0.0,0.0,82,0.00,,,0.00,WeatherCatV1.15B25,2013-05-17 13:48:00,
2013-05-17 06:53:00,52.6,47.3,29.93,SW,219,1.0,1.0,82,0.00,,,0.00,WeatherCatV1.15B25,2013-05-17 13:53:00,
2013-05-17 06:58:00,52.9,47.6,29.93,SW,223,0.0,1.0,82,0.00,,,0.00,WeatherCatV1.15B25,2013-05-17 13:58:00,
2013-05-17 07:03:00,53.2,47.8,29.93,SW,222,0.0,1.0,82,0.00,,,0.00,WeatherCatV1.15B25,2013-05-17 14:03:00,
2013-05-17 07:08:00,53.4,47.7,29.93,SW,223,0.0,0.0,81,0.00,,,0.00,WeatherCatV1.15B25,2013-05-17 14:08:00,
2013-05-17 07:13:00,53.7,47.7,29.93,NNW,327,0.0,5.0,80,0.00,,,0.00,WeatherCatV1.15B25,2013-05-17 14:13:00,
2013-05-17 07:18:00,54.1,48.1,29.93,NNW,332,1.0,4.0,80,0.00,,,0.00,WeatherCatV1.15B25,2013-05-17 14:18:00,
2013-05-17 07:23:00,54.5,48.1,29.93,NW,308,0.0,1.0,79,0.00,,,0.00,WeatherCatV1.15B25,2013-05-17 14:23:00,
2013-05-17 07:28:00,54.9,48.2,29.94,NNW,327,0.0,0.0,78,0.00,,,0.00,WeatherCatV1.15B25,2013-05-17 14:28:00,
2013-05-17 07:33:00,55.4,48.3,29.94,NNW,334,0.0,2.0,77,0.00,,,0.00,WeatherCatV1.15B25,2013-05-17 14:33:00,
2013-05-17 07:38:00,55.9,48.4,29.94,WNW,286,1.0,2.0,76,0.00,,,0.00,WeatherCatV1.15B25,2013-05-17 14:38:00,
2013-05-17 07:43:00,56.4,48.9,29.94,NW,320,0.0,1.0,76,0.00,,,0.00,WeatherCatV1.15B25,2013-05-17 14:43:00,
2013-05-17 07:48:00,56.9,49.1,29.94,WNW,298,1.0,2.0,75,0.00,,,0.00,WeatherCatV1.15B25,2013-05-17 14:48:00,
2013-05-17 07:53:00,57.6,49.0,29.94,WNW,287,0.0,1.0,73,0.00,,,0.00,WeatherCatV1.15B25,2013-05-17 14:53:00,
2013-05-17 07:58:00,58.4,49.4,29.94,WNW,287,0.0,0.0,72,0.00,,,0.00,WeatherCatV1.15B25,2013-05-17 14:58:00,
2013-05-17 08:03:00,59.2,49.4,29.94,WSW,247,0.0,0.0,70,0.00,,,0.00,WeatherCatV1.15B25,2013-05-17 15:03:00,
2013-05-17 08:08:00,59.9,49.3,29.94,WNW,284,0.0,3.0,68,0.00,,,0.00,WeatherCatV1.15B25,2013-05-17 15:08:00,
2013-05-17 08:13:00,60.7,49.7,29.94,WSW,244,0.0,1.0,67,0.00,,,0.00,WeatherCatV1.15B25,2013-05-17 15:13:00,
2013-05-17 08:18:00,61.3,49.8,29.94,WSW,257,1.0,1.0,66,0.00,,,0.00,WeatherCatV1.15B25,2013-05-17 15:18:00,
2013-05-17 08:23:00,61.7,49.0,29.94,WSW,238,5.0,6.0,63,0.00,,,0.00,WeatherCatV1.15B25,2013-05-17 15:23:00,
2013-05-17 08:28:00,62.1,48.9,29.94,WSW,240,0.0,3.0,62,0.00,,,0.00,WeatherCatV1.15B25,2013-05-17 15:28:00,
2013-05-17 08:33:00,62.6,49.0,29.94,West,263,0.0,1.0,61,0.00,,,0.00,WeatherCatV1.15B25,2013-05-17 15:33:00,
2013-05-17 08:38:00,63.1,49.0,29.94,NW,309,0.0,6.0,60,0.00,,,0.00,WeatherCatV1.15B25,2013-05-17 15:38:00,
2013-05-17 08:43:00,63.7,49.1,29.95,West,262,0.0,1.0,59,0.00,,,0.00,WeatherCatV1.15B25,2013-05-17 15:43:00,
2013-05-17 08:48:00,64.1,48.5,29.95,WNW,291,0.0,2.0,57,0.00,,,0.00,WeatherCatV1.15B25,2013-05-17 15:48:00,
2013-05-17 08:53:00,64.6,49.9,29.95,NW,313,1.0,2.0,59,0.00,,,0.00,WeatherCatV1.15B25,2013-05-17 15:53:00,
2013-05-17 08:58:00,65.1,48.5,29.95,NNW,329,0.0,5.0,55,0.00,,,0.00,WeatherCatV1.15B25,2013-05-17 15:58:00,
2013-05-17 09:03:00,65.5,48.4,29.95,WNW,295,1.0,2.0,54,0.00,,,0.00,WeatherCatV1.15B25,2013-05-17 16:03:00,
2013-05-17 09:08:00,66.1,49.0,29.95,WNW,294,0.0,1.0,54,0.00,,,0.00,WeatherCatV1.15B25,2013-05-17 16:08:00,
2013-05-17 09:13:00,66.4,48.2,29.95,WSW,250,2.0,3.0,52,0.00,,,0.00,WeatherCatV1.15B25,2013-05-17 16:13:00,
2013-05-17 09:18:00,66.7,48.0,29.95,WSW,237,5.0,5.0,51,0.00,,,0.00,WeatherCatV1.15B25,2013-05-17 16:18:00,
2013-05-17 09:23:00,67.1,48.4,29.95,West,261,0.0,3.0,51,0.00,,,0.00,WeatherCatV1.15B25,2013-05-17 16:23:00,
2013-05-17 09:28:00,67.2,47.4,29.95,West,275,2.0,6.0,49,0.00,,,0.00,WeatherCatV1.15B25,2013-05-17 16:28:00,
2013-05-17 09:33:00,67.2,48.5,29.95,WSW,238,0.0,1.0,51,0.00,,,0.00,WeatherCatV1.15B25,2013-05-17 16:33:00,
2013-05-17 09:38:00,67.7,48.4,29.96,WSW,242,0.0,1.0,50,0.00,,,0.00,WeatherCatV1.15B25,2013-05-17 16:38:00,
2013-05-17 09:43:00,68.3,46.7,29.96,NW,314,0.0,6.0,46,0.00,,,0.00,WeatherCatV1.15B25,2013-05-17 16:43:00,
2013-05-17 09:48:00,68.5,45.7,29.96,NNW,327,1.0,4.0,44,0.00,,,0.00,WeatherCatV1.15B25,2013-05-17 16:48:00,
2013-05-17 09:53:00,68.7,46.5,29.96,West,259,0.0,2.0,45,0.00,,,0.00,WeatherCatV1.15B25,2013-05-17 16:53:00,
2013-05-17 09:58:00,69.0,47.3,29.96,SW,236,0.0,2.0,46,0.00,,,0.00,WeatherCatV1.15B25,2013-05-17 16:58:00,
2013-05-17 10:03:00,69.5,47.2,29.96,WSW,246,0.0,1.0,45,0.00,,,0.00,WeatherCatV1.15B25,2013-05-17 17:03:00,
2013-05-17 10:08:00,70.2,48.4,29.96,NW,321,2.0,4.0,46,0.00,,,0.00,WeatherCatV1.15B25,2013-05-17 17:08:00,
2013-05-17 10:13:00,70.3,45.5,29.96,NNW,327,0.0,6.0,41,0.00,,,0.00,WeatherCatV1.15B25,2013-05-17 17:13:00,
2013-05-17 10:18:00,69.9,45.8,29.95,NNW,330,2.0,7.0,42,0.00,,,0.00,WeatherCatV1.15B25,2013-05-17 17:18:00,
2013-05-17 10:23:00,69.8,47.5,29.96,NNW,329,1.0,3.0,45,0.00,,,0.00,WeatherCatV1.15B25,2013-05-17 17:23:00,
2013-05-17 10:28:00,70.2,50.7,29.95,SW,219,1.0,3.0,50,0.00,,,0.00,WeatherCatV1.15B25,2013-05-17 17:28:00,
2013-05-17 10:33:00,71.0,49.2,29.96,WSW,254,0.0,2.0,46,0.00,,,0.00,WeatherCatV1.15B25,2013-05-17 17:33:00,
2013-05-17 10:38:00,70.9,47.9,29.95,NNW,330,0.0,4.0,44,0.00,,,0.00,WeatherCatV1.15B25,2013-05-17 17:38:00,
2013-05-17 10:43:00,71.0,49.7,29.95,NW,314,0.0,1.0,47,0.00,,,0.00,WeatherCatV1.15B25,2013-05-17 17:43:00,
2013-05-17 10:48:00,71.2,46.9,29.95,NNW,340,0.0,6.0,42,0.00,,,0.00,WeatherCatV1.15B25,2013-05-17 17:48:00,
2013-05-17 10:53:00,71.1,46.8,29.95,NNW,341,1.0,4.0,42,0.00,,,0.00,WeatherCatV1.15B25,2013-05-17 17:53:00,
2013-05-17 10:58:00,71.5,48.4,29.95,WSW,241,0.0,1.0,44,0.00,,,0.00,WeatherCatV1.15B25,2013-05-17 17:58:00,
2013-05-17 11:03:00,72.2,47.8,29.95,NNW,331,0.0,5.0,42,0.00,,,0.00,WeatherCatV1.15B25,2013-05-17 18:03:00,
2013-05-17 11:08:00,72.3,47.3,29.95,NNW,327,0.0,4.0,41,0.00,,,0.00,WeatherCatV1.15B25,2013-05-17 18:08:00,
2013-05-17 11:13:00,72.5,48.7,29.95,NNW,331,3.0,3.0,43,0.00,,,0.00,WeatherCatV1.15B25,2013-05-17 18:13:00,
2013-05-17 11:18:00,73.0,47.9,29.95,WNW,303,1.0,3.0,41,0.00,,,0.00,WeatherCatV1.15B25,2013-05-17 18:18:00,
2013-05-17 11:23:00,72.9,47.8,29.95,NW,317,0.0,2.0,41,0.00,,,0.00,WeatherCatV1.15B25,2013-05-17 18:23:00,
2013-05-17 11:28:00,73.0,47.2,29.95,WNW,288,0.0,2.0,40,0.00,,,0.00,WeatherCatV1.15B25,2013-05-17 18:28:00,
2013-05-17 11:33:00,73.6,48.4,29.95,West,267,0.0,0.0,41,0.00,,,0.00,WeatherCatV1.15B25,2013-05-17 18:33:00,
2013-05-17 11:38:00,73.8,50.5,29.95,North,355,0.0,4.0,44,0.00,,,0.00,WeatherCatV1.15B25,2013-05-17 18:38:00,
2013-05-17 11:43:00,73.7,47.2,29.95,NNW,348,0.0,4.0,39,0.00,,,0.00,WeatherCatV1.15B25,2013-05-17 18:43:00,
2013-05-17 11:48:00,73.6,49.1,29.95,West,260,5.0,5.0,42,0.00,,,0.00,WeatherCatV1.15B25,2013-05-17 18:48:00,
2013-05-17 11:53:00,74.0,48.1,29.95,North,355,3.0,6.0,40,0.00,,,0.00,WeatherCatV1.15B25,2013-05-17 18:53:00,
2013-05-17 11:58:00,73.6,48.4,29.95,NW,305,1.0,4.0,41,0.00,,,0.00,WeatherCatV1.15B25,2013-05-17 18:58:00,
2013-05-17 12:03:00,74.1,51.4,29.95,NNW,346,5.0,5.0,45,0.00,,,0.00,WeatherCatV1.15B25,2013-05-17 19:03:00,
2013-05-17 12:08:00,73.7,49.2,29.95,NW,314,0.0,5.0,42,0.00,,,0.00,WeatherCatV1.15B25,2013-05-17 19:08:00,
2013-05-17 12:13:00,74.1,48.2,29.95,NNW,341,3.0,4.0,40,0.00,,,0.00,WeatherCatV1.15B25,2013-05-17 19:13:00,
2013-05-17 12:18:00,74.1,47.5,29.95,North,5,1.0,5.0,39,0.00,,,0.00,WeatherCatV1.15B25,2013-05-17 19:18:00,
2013-05-17 12:23:00,74.2,48.3,29.94,WSW,242,1.0,9.0,40,0.00,,,0.00,WeatherCatV1.15B25,2013-05-17 19:23:00,
2013-05-17 12:28:00,74.8,50.2,29.94,NW,310,2.0,6.0,42,0.00,,,0.00,WeatherCatV1.15B25,2013-05-17 19:28:00,
2013-05-17 12:33:00,75.2,47.1,29.94,NNE,17,1.0,4.0,37,0.00,,,0.00,WeatherCatV1.15B25,2013-05-17 19:33:00,
2013-05-17 12:38:00,75.6,50.9,29.94,WSW,239,5.0,6.0,42,0.00,,,0.00,WeatherCatV1.15B25,2013-05-17 19:38:00,
2013-05-17 12:43:00,75.4,49.4,29.94,WSW,249,0.0,5.0,40,0.00,,,0.00,WeatherCatV1.15B25,2013-05-17 19:43:00,
2013-05-17 12:48:00,76.0,49.2,29.94,NNW,333,3.0,9.0,39,0.00,,,0.00,WeatherCatV1.15B25,2013-05-17 19:48:00,
2013-05-17 12:53:00,75.9,50.5,29.94,West,261,0.0,4.0,41,0.00,,,0.00,WeatherCatV1.15B25,2013-05-17 19:53:00,
2013-05-17 12:58:00,76.7,50.5,29.94,WSW,245,3.0,6.0,40,0.00,,,0.00,WeatherCatV1.15B25,2013-05-17 19:58:00,
2013-05-17 13:03:00,77.0,52.1,29.94,WSW,238,0.0,1.0,42,0.00,,,0.00,WeatherCatV1.15B25,2013-05-17 20:03:00,
2013-05-17 13:08:00,77.3,48.2,29.94,NW,319,8.0,10.0,36,0.00,,,0.00,WeatherCatV1.15B25,2013-05-17 20:08:00,
2013-05-17 13:13:00,77.2,49.6,29.94,WSW,241,6.0,6.0,38,0.00,,,0.00,WeatherCatV1.15B25,2013-05-17 20:13:00,
2013-05-17 13:18:00,76.7,49.9,29.94,WSW,242,0.0,1.0,39,0.00,,,0.00,WeatherCatV1.15B25,2013-05-17 20:18:00,
2013-05-17 13:23:00,76.9,49.3,29.94,NW,315,2.0,4.0,38,0.00,,,0.00,WeatherCatV1.15B25,2013-05-17 20:23:00,
2013-05-17 13:28:00,76.6,47.6,29.94,WNW,300,0.0,3.0,36,0.00,,,0.00,WeatherCatV1.15B25,2013-05-17 20:28:00,
2013-05-17 13:33:00,76.6,49.1,29.94,West,279,1.0,2.0,38,0.00,,,0.00,WeatherCatV1.15B25,2013-05-17 20:33:00,
2013-05-17 13:38:00,77.0,49.4,29.94,North,355,1.0,6.0,38,0.00,,,0.00,WeatherCatV1.15B25,2013-05-17 20:38:00,
2013-05-17 13:43:00,77.2,48.2,29.94,NW,321,0.0,6.0,36,0.00,,,0.00,WeatherCatV1.15B25,2013-05-17 20:43:00,
2013-05-17 13:48:00,76.9,50.0,29.94,NNW,330,0.0,6.0,39,0.00,,,0.00,WeatherCatV1.15B25,2013-05-17 20:48:00,
2013-05-17 13:53:00,77.1,52.9,29.93,SW,236,5.0,5.0,43,0.00,,,0.00,WeatherCatV1.15B25,2013-05-17 20:53:00,
2013-05-17 13:58:00,77.5,51.3,29.93,WSW,239,1.0,7.0,40,0.00,,,0.00,WeatherCatV1.15B25,2013-05-17 20:58:00,
2013-05-17 14:03:00,78.1,49.7,29.93,NW,326,1.0,4.0,37,0.00,,,0.00,WeatherCatV1.15B25,2013-05-17 21:03:00,
2013-05-17 14:08:00,78.5,49.3,29.93,West,259,0.0,3.0,36,0.00,,,0.00,WeatherCatV1.15B25,2013-05-17 21:08:00,
2013-05-17 14:13:00,78.7,50.2,29.93,West,276,1.0,3.0,37,0.00,,,0.00,WeatherCatV1.15B25,2013-05-17 21:13:00,
2013-05-17 14:18:00,78.4,47.7,29.93,SW,232,0.0,6.0,34,0.00,,,0.00,WeatherCatV1.15B25,2013-05-17 21:18:00,
2013-05-17 14:23:00,78.6,47.9,29.93,WSW,243,0.0,1.0,34,0.00,,,0.00,WeatherCatV1.15B25,2013-05-17 21:23:00,
2013-05-17 14:28:00,79.2,49.9,29.93,WSW,243,1.0,3.0,36,0.00,,,0.00,WeatherCatV1.15B25,2013-05-17 21:28:00,
2013-05-17 14:33:00,79.3,49.2,29.93,WSW,250,0.0,1.0,35,0.00,,,0.00,WeatherCatV1.15B25,2013-05-17 21:33:00,
2013-05-17 14:38:00,79.3,50.0,29.92,SW,228,0.0,3.0,36,0.00,,,0.00,WeatherCatV1.15B25,2013-05-17 21:38:00,
2013-05-17 14:43:00,79.1,47.5,29.92,NW,318,1.0,4.0,33,0.00,,,0.00,WeatherCatV1.15B25,2013-05-17 21:43:00,
2013-05-17 14:48:00,79.1,49.1,29.92,NW,322,5.0,5.0,35,0.00,,,0.00,WeatherCatV1.15B25,2013-05-17 21:48:00,
2013-05-17 14:53:00,79.2,49.2,29.92,WNW,290,2.0,2.0,35,0.00,,,0.00,WeatherCatV1.15B25,2013-05-17 21:53:00,
2013-05-17 14:58:00,79.7,50.4,29.92,West,261,0.0,4.0,36,0.00,,,0.00,WeatherCatV1.15B25,2013-05-17 21:58:00,
2013-05-17 15:03:00,79.9,49.8,29.92,WNW,290,1.0,3.0,35,0.00,,,0.00,WeatherCatV1.15B25,2013-05-17 22:03:00,
2013-05-17 15:08:00,79.5,47.0,29.92,North,10,5.0,6.0,32,0.00,,,0.00,WeatherCatV1.15B25,2013-05-17 22:08:00,
2013-05-17 15:13:00,79.0,49.0,29.92,NNW,329,0.0,4.0,35,0.00,,,0.00,WeatherCatV1.15B25,2013-05-17 22:13:00,
2013-05-17 15:18:00,79.4,51.6,29.92,West,260,0.0,7.0,38,0.00,,,0.00,WeatherCatV1.15B25,2013-05-17 22:18:00,
2013-05-17 15:23:00,79.7,48.0,29.91,NNW,338,0.0,2.0,33,0.00,,,0.00,WeatherCatV1.15B25,2013-05-17 22:23:00,
2013-05-17 15:28:00,79.6,48.7,29.91,WNW,298,2.0,6.0,34,0.00,,,0.00,WeatherCatV1.15B25,2013-05-17 22:28:00,
2013-05-17 15:33:00,79.9,49.8,29.91,NW,325,1.0,1.0,35,0.00,,,0.00,WeatherCatV1.15B25,2013-05-17 22:33:00,
2013-05-17 15:38:00,80.3,48.5,29.91,NNW,330,1.0,6.0,33,0.00,,,0.00,WeatherCatV1.15B25,2013-05-17 22:38:00,
2013-05-17 15:43:00,80.2,48.5,29.91,NW,317,6.0,6.0,33,0.00,,,0.00,WeatherCatV1.15B25,2013-05-17 22:43:00,
2013-05-17 15:48:00,79.9,47.4,29.91,NNW,331,2.0,9.0,32,0.00,,,0.00,WeatherCatV1.15B25,2013-05-17 22:48:00,
2013-05-17 15:53:00,79.4,46.9,29.90,NNE,22,7.0,10.0,32,0.00,,,0.00,WeatherCatV1.15B25,2013-05-17 22:53:00,
2013-05-17 15:58:00,79.1,47.5,29.91,NNW,331,5.0,6.0,33,0.00,,,0.00,WeatherCatV1.15B25,2013-05-17 22:58:00,
2013-05-17 16:03:00,79.3,49.2,29.90,NW,319,0.0,2.0,35,0.00,,,0.00,WeatherCatV1.15B25,2013-05-17 23:03:00,
2013-05-17 16:08:00,80.0,47.5,29.90,NW,326,5.0,9.0,32,0.00,,,0.00,WeatherCatV1.15B25,2013-05-17 23:08:00,
2013-05-17 16:13:00,80.0,47.5,29.90,NNW,340,5.0,5.0,32,0.00,,,0.00,WeatherCatV1.15B25,2013-05-17 23:13:00,
2013-05-17 16:18:00,80.1,49.2,29.90,NW,325,2.0,3.0,34,0.00,,,0.00,WeatherCatV1.15B25,2013-05-17 23:18:00,
2013-05-17 16:23:00,80.3,47.7,29.90,NW,310,0.0,4.0,32,0.00,,,0.00,WeatherCatV1.15B25,2013-05-17 23:23:00,
2013-05-17 16:28:00,80.4,48.6,29.90,NNW,332,0.0,3.0,33,0.00,,,0.00,WeatherCatV1.15B25,2013-05-17 23:28:00,
2013-05-17 16:33:00,80.6,48.8,29.90,NNW,329,0.0,2.0,33,0.00,,,0.00,WeatherCatV1.15B25,2013-05-17 23:33:00,
2013-05-17 16:38:00,81.0,48.3,29.90,West,267,2.0,6.0,32,0.00,,,0.00,WeatherCatV1.15B25,2013-05-17 23:38:00,
2013-05-17 16:43:00,81.2,48.5,29.90,NW,321,7.0,7.0,32,0.00,,,0.00,WeatherCatV1.15B25,2013-05-17 23:43:00,
2013-05-17 16:48:00,81.1,47.6,29.90,NW,310,0.0,9.0,31,0.00,,,0.00,WeatherCatV1.15B25,2013-05-17 23:48:00,
2013-05-17 16:53:00,80.8,48.2,29.90,NNW,342,1.0,1.0,32,0.00,,,0.00,WeatherCatV1.15B25,2013-05-17 23:53:00,
2013-05-17 16:58:00,80.8,47.3,29.90,NW,325,7.0,7.0,31,0.00,,,0.00,WeatherCatV1.15B25,2013-05-17 23:58:00,
2013-05-17 17:03:00,80.6,47.1,29.90,NW,326,0.0,5.0,31,0.00,,,0.00,WeatherCatV1.15B25,2013-05-18 00:03:00,
2013-05-17 17:08:00,80.5,48.7,29.89,WSW,237,0.0,6.0,33,0.00,,,0.00,WeatherCatV1.15B25,2013-05-18 00:08:00,
2013-05-17 17:13:00,80.8,49.0,29.89,WNW,297,3.0,3.0,33,0.00,,,0.00,WeatherCatV1.15B25,2013-05-18 00:13:00,
2013-05-17 17:18:00,81.0,46.6,29.89,NW,320,6.0,7.0,30,0.00,,,0.00,WeatherCatV1.15B25,2013-05-18 00:18:00,
2013-05-17 17:23:00,80.8,48.2,29.89,NW,322,5.0,5.0,32,0.00,,,0.00,WeatherCatV1.15B25,2013-05-18 00:23:00,
2013-05-17 17:28:00,80.5,46.2,29.89,NNW,331,0.0,8.0,30,0.00,,,0.00,WeatherCatV1.15B25,2013-05-18 00:28:00,
2013-05-17 17:33:00,80.3,46.0,29.89,NW,324,0.0,5.0,30,0.00,,,0.00,WeatherCatV1.15B25,2013-05-18 00:33:00,
2013-05-17 17:38:00,80.2,45.0,29.89,WNW,288,0.0,6.0,29,0.00,,,0.00,WeatherCatV1.15B25,2013-05-18 00:38:00,
2013-05-17 17:43:00,79.9,43.9,29.89,NW,326,0.0,3.0,28,0.00,,,0.00,WeatherCatV1.15B25,2013-05-18 00:43:00,
2013-05-17 17:48:00,79.7,44.6,29.89,WNW,286,0.0,5.0,29,0.00,,,0.00,WeatherCatV1.15B25,2013-05-18 00:48:00,
2013-05-17 17:53:00,79.7,44.6,29.90,NW,326,0.0,5.0,29,0.00,,,0.00,WeatherCatV1.15B25,2013-05-18 00:53:00,
2013-05-17 17:58:00,79.6,44.5,29.89,NW,315,3.0,3.0,29,0.00,,,0.00,WeatherCatV1.15B25,2013-05-18 00:58:00,
2013-05-17 18:03:00,79.6,45.4,29.89,NW,322,0.0,1.0,30,0.00,,,0.00,WeatherCatV1.15B25,2013-05-18 01:03:00,
2013-05-17 18:08:00,79.4,44.3,29.89,West,265,0.0,1.0,29,0.00,,,0.00,WeatherCatV1.15B25,2013-05-18 01:08:00,
2013-05-17 18:13:00,79.4,45.2,29.89,WNW,288,4.0,4.0,30,0.00,,,0.00,WeatherCatV1.15B25,2013-05-18 01:13:00,
2013-05-17 18:18:00,79.2,44.2,29.90,NW,306,0.0,1.0,29,0.00,,,0.00,WeatherCatV1.15B25,2013-05-18 01:18:00,
2013-05-17 18:23:00,78.8,43.8,29.89,NW,311,2.0,4.0,29,0.00,,,0.00,WeatherCatV1.15B25,2013-05-18 01:23:00,
2013-05-17 18:28:00,78.5,43.6,29.89,NW,308,0.0,5.0,29,0.00,,,0.00,WeatherCatV1.15B25,2013-05-18 01:28:00,
2013-05-17 18:33:00,78.2,44.2,29.90,NW,313,0.0,1.0,30,0.00,,,0.00,WeatherCatV1.15B25,2013-05-18 01:33:00,
2013-05-17 18:38:00,78.1,45.0,29.90,WNW,294,0.0,3.0,31,0.00,,,0.00,WeatherCatV1.15B25,2013-05-18 01:38:00,
2013-05-17 18:43:00,77.8,43.9,29.90,North,350,0.0,1.0,30,0.00,,,0.00,WeatherCatV1.15B25,2013-05-18 01:43:00,
2013-05-17 18:48:00,77.5,43.6,29.89,WSW,246,0.0,0.0,30,0.00,,,0.00,WeatherCatV1.15B25,2013-05-18 01:48:00,
2013-05-17 18:53:00,77.2,43.3,29.90,WSW,246,0.0,0.0,30,0.00,,,0.00,WeatherCatV1.15B25,2013-05-18 01:53:00,
2013-05-17 18:58:00,76.8,43.9,29.90,WSW,244,0.0,1.0,31,0.00,,,0.00,WeatherCatV1.15B25,2013-05-18 01:58:00,
2013-05-17 19:03:00,76.4,43.5,29.90,West,269,0.0,1.0,31,0.00,,,0.00,WeatherCatV1.15B25,2013-05-18 02:03:00,
2013-05-17 19:08:00,75.9,43.9,29.90,NW,321,0.0,6.0,32,0.00,,,0.00,WeatherCatV1.15B25,2013-05-18 02:08:00,
2013-05-17 19:13:00,75.5,44.4,29.90,NNW,333,0.0,3.0,33,0.00,,,0.00,WeatherCatV1.15B25,2013-05-18 02:13:00,
2013-05-17 19:18:00,75.0,44.7,29.90,NW,325,0.0,1.0,34,0.00,,,0.00,WeatherCatV1.15B25,2013-05-18 02:18:00,
2013-05-17 19:23:00,74.5,44.3,29.90,NW,325,0.0,1.0,34,0.00,,,0.00,WeatherCatV1.15B25,2013-05-18 02:23:00,
2013-05-17 19:28:00,74.0,44.6,29.90,NW,325,0.0,1.0,35,0.00,,,0.00,WeatherCatV1.15B25,2013-05-18 02:28:00,
2013-05-17 19:33:00,73.6,45.0,29.90,NW,325,0.0,0.0,36,0.00,,,0.00,WeatherCatV1.15B25,2013-05-18 02:33:00,
2013-05-17 19:38:00,73.2,44.6,29.90,NW,325,0.0,0.0,36,0.00,,,0.00,WeatherCatV1.15B25,2013-05-18 02:38:00,
2013-05-17 19:43:00,72.7,44.9,29.90,NW,325,0.0,0.0,37,0.00,,,0.00,WeatherCatV1.15B25,2013-05-18 02:43:00,
2013-05-17 19:48:00,72.2,44.5,29.90,NW,325,0.0,3.0,37,0.00,,,0.00,WeatherCatV1.15B25,2013-05-18 02:48:00,
2013-05-17 19:53:00,71.8,44.8,29.90,NW,325,0.0,0.0,38,0.00,,,0.00,WeatherCatV1.15B25,2013-05-18 02:53:00,
2013-05-17 19:58:00,71.3,44.4,29.90,NW,326,0.0,0.0,38,0.00,,,0.00,WeatherCatV1.15B25,2013-05-18 02:58:00,
2013-05-17 20:03:00,70.8,44.6,29.91,NNW,327,0.0,0.0,39,0.00,,,0.00,WeatherCatV1.15B25,2013-05-18 03:03:00,
2013-05-17 20:08:00,70.4,44.2,29.91,NW,326,0.0,0.0,39,0.00,,,0.00,WeatherCatV1.15B25,2013-05-18 03:08:00,
2013-05-17 20:13:00,69.9,44.5,29.91,NW,326,0.0,0.0,40,0.00,,,0.00,WeatherCatV1.15B25,2013-05-18 03:13:00,
2013-05-17 20:18:00,69.5,44.8,29.91,NNW,327,0.0,0.0,41,0.00,,,0.00,WeatherCatV1.15B25,2013-05-18 03:18:00,
2013-05-17 20:23:00,69.1,45.7,29.91,NNW,327,0.0,1.0,43,0.00,,,0.00,WeatherCatV1.15B25,2013-05-18 03:23:00,
2013-05-17 20:28:00,68.7,45.3,29.91,NW,326,0.0,0.0,43,0.00,,,0.00,WeatherCatV1.15B25,2013-05-18 03:28:00,
2013-05-17 20:33:00,68.2,45.4,29.91,NW,326,0.0,0.0,44,0.00,,,0.00,WeatherCatV1.15B25,2013-05-18 03:33:00,
2013-05-17 20:38:00,67.9,45.8,29.92,NNW,327,0.0,0.0,45,0.00,,,0.00,WeatherCatV1.15B25,2013-05-18 03:38:00,
2013-05-17 20:43:00,67.6,45.5,29.92,NW,326,0.0,0.0,45,0.00,,,0.00,WeatherCatV1.15B25,2013-05-18 03:43:00,
2013-05-17 20:48:00,67.1,45.6,29.92,NW,326,0.0,0.0,46,0.00,,,0.00,WeatherCatV1.15B25,2013-05-18 03:48:00,
2013-05-17 20:53:00,66.5,45.6,29.92,NNW,327,0.0,0.0,47,0.00,,,0.00,WeatherCatV1.15B25,2013-05-18 03:53:00,
2013-05-17 20:58:00,66.0,45.2,29.92,NNW,327,0.0,0.0,47,0.00,,,0.00,WeatherCatV1.15B25,2013-05-18 03:58:00,
2013-05-17 21:01:00,65.8,45.6,29.92,NNW,327,0.0,0.0,48,0.00,,,0.00,WeatherCatV1.15B25,2013-05-18 04:01:00,
2013-05-17 21:06:00,65.5,45.3,29.92,NNW,327,0.0,0.0,48,0.00,,,0.00,WeatherCatV1.15B25,2013-05-18 04:06:00,
2013-05-17 21:11:00,65.3,45.1,29.93,NNW,327,0.0,1.0,48,0.00,,,0.00,WeatherCatV1.15B25,2013-05-18 04:11:00,
2013-05-17 21:16:00,65.1,45.5,29.93,NNW,327,0.0,1.0,49,0.00,,,0.00,WeatherCatV1.15B25,2013-05-18 04:16:00,
2013-05-17 21:21:00,64.9,45.3,29.93,NNW,327,0.0,1.0,49,0.00,,,0.00,WeatherCatV1.15B25,2013-05-18 04:21:00,
2013-05-17 21:26:00,64.9,45.3,29.93,NNW,327,0.0,1.0,49,0.00,,,0.00,WeatherCatV1.15B25,2013-05-18 04:26:00,
2013-05-17 21:31:00,64.7,45.6,29.93,NW,326,0.0,0.0,50,0.00,,,0.00,WeatherCatV1.15B25,2013-05-18 04:31:00,
2013-05-17 21:36:00,64.6,45.5,29.93,NNW,327,0.0,1.0,50,0.00,,,0.00,WeatherCatV1.15B25,2013-05-18 04:36:00,
2013-05-17 21:41:00,64.6,45.5,29.94,NW,317,0.0,0.0,50,0.00,,,0.00,WeatherCatV1.15B25,2013-05-18 04:41:00,
2013-05-17 21:46:00,64.6,45.0,29.94,WSW,249,0.0,3.0,49,0.00,,,0.00,WeatherCatV1.15B25,2013-05-18 04:46:00,
2013-05-17 21:51:00,64.6,45.0,29.94,WSW,245,0.0,5.0,49,0.00,,,0.00,WeatherCatV1.15B25,2013-05-18 04:51:00,
2013-05-17 21:56:00,64.6,45.0,29.94,West,260,0.0,2.0,49,0.00,,,0.00,WeatherCatV1.15B25,2013-05-18 04:56:00,
2013-05-17 22:01:00,64.6,45.5,29.94,WSW,252,0.0,4.0,50,0.00,,,0.00,WeatherCatV1.15B25,2013-05-18 05:01:00,
2013-05-17 22:06:00,64.7,45.6,29.94,WSW,238,1.0,5.0,50,0.00,,,0.00,WeatherCatV1.15B25,2013-05-18 05:06:00,
2013-05-17 22:11:00,64.7,45.6,29.95,WSW,257,0.0,3.0,50,0.00,,,0.00,WeatherCatV1.15B25,2013-05-18 05:11:00,
2013-05-17 22:16:00,64.7,45.6,29.95,WSW,256,0.0,1.0,50,0.00,,,0.00,WeatherCatV1.15B25,2013-05-18 05:16:00,
2013-05-17 22:21:00,64.5,46.0,29.95,WSW,249,1.0,1.0,51,0.00,,,0.00,WeatherCatV1.15B25,2013-05-18 05:21:00,
2013-05-17 22:26:00,64.4,45.9,29.95,WSW,252,0.0,1.0,51,0.00,,,0.00,WeatherCatV1.15B25,2013-05-18 05:26:00,
2013-05-17 22:31:00,64.2,46.2,29.95,West,261,0.0,0.0,52,0.00,,,0.00,WeatherCatV1.15B25,2013-05-18 05:31:00,
2013-05-17 22:36:00,63.9,45.9,29.95,West,260,0.0,1.0,52,0.00,,,0.00,WeatherCatV1.15B25,2013-05-18 05:36:00,
2013-05-17 22:41:00,63.8,45.8,29.96,WSW,254,0.0,3.0,52,0.00,,,0.00,WeatherCatV1.15B25,2013-05-18 05:41:00,
2013-05-17 22:46:00,63.6,46.2,29.96,WSW,248,0.0,1.0,53,0.00,,,0.00,WeatherCatV1.15B25,2013-05-18 05:46:00,
2013-05-17 22:51:00,63.5,46.1,29.96,WSW,248,0.0,1.0,53,0.00,,,0.00,WeatherCatV1.15B25,2013-05-18 05:51:00,
2013-05-17 22:56:00,63.3,46.4,29.96,WSW,252,0.0,1.0,54,0.00,,,0.00,WeatherCatV1.15B25,2013-05-18 05:56:00,
2013-05-17 23:01:00,63.2,46.3,29.96,WSW,253,0.0,2.0,54,0.00,,,0.00,WeatherCatV1.15B25,2013-05-18 06:01:00,
2013-05-17 23:06:00,63.0,46.1,29.96,WSW,244,0.0,1.0,54,0.00,,,0.00,WeatherCatV1.15B25,2013-05-18 06:06:00,
2013-05-17 23:11:00,62.9,46.0,29.96,WSW,248,0.0,1.0,54,0.00,,,0.00,WeatherCatV1.15B25,2013-05-18 06:11:00,
2013-05-17 23:16:00,62.6,46.2,29.96,WSW,248,0.0,0.0,55,0.00,,,0.00,WeatherCatV1.15B25,2013-05-18 06:16:00,
2013-05-17 23:21:00,62.5,46.1,29.96,WSW,248,0.0,1.0,55,0.00,,,0.00,WeatherCatV1.15B25,2013-05-18 06:21:00,
2013-05-17 23:26:00,62.2,45.8,29.96,WSW,246,0.0,0.0,55,0.00,,,0.00,WeatherCatV1.15B25,2013-05-18 06:26:00,
2013-05-17 23:31:00,62.0,45.6,29.96,WSW,250,1.0,1.0,55,0.00,,,0.00,WeatherCatV1.15B25,2013-05-18 06:31:00,
2013-05-17 23:36:00,61.8,45.5,29.97,WSW,249,0.0,0.0,55,0.00,,,0.00,WeatherCatV1.15B25,2013-05-18 06:36:00,
2013-05-17 23:41:00,61.6,45.3,29.97,WSW,249,0.0,0.0,55,0.00,,,0.00,WeatherCatV1.15B25,2013-05-18 06:41:00,
2013-05-17 23:46:00,61.5,45.2,29.97,WSW,248,0.0,0.0,55,0.00,,,0.00,WeatherCatV1.15B25,2013-05-18 06:46:00,
2013-05-17 23:51:00,61.3,45.0,29.97,WSW,246,0.0,1.0,55,0.00,,,0.00,WeatherCatV1.15B25,2013-05-18 06:51:00,
2013-05-17 23:56:00,61.2,44.9,29.97,WSW,247,0.0,1.0,55,0.00,,,0.00,WeatherCatV1.15B25,2013-05-18 06:56:00,